This is the latest recevied weather packets stored in our database for station/object K5DLF-13. If no packets are shown the sender has not sent any weather packets the latest 1 day(s).
| Time | Temp. | Humidity | Pressure | Rain* | Wind** | Luminosity | Snow |
|---|---|---|---|---|---|---|---|
| 1778004297 | 26.67° C | 87% | 1007.1 hPa | 0 mm | 0.89 m/s, 196° | 135 W/m² | - |
| 1778003997 | 26.67° C | 87% | 1007 hPa | 0 mm | 0.89 m/s, 195° | 146 W/m² | - |
| 1778003697 | 26.67° C | 86% | 1007.1 hPa | 0 mm | 0.89 m/s, 196° | 181 W/m² | - |
| 1778003397 | 26.67° C | 86% | 1007.1 hPa | 0 mm | 0.89 m/s, 196° | 130 W/m² | - |
| 1778003097 | 26.67° C | 88% | 1007 hPa | 0 mm | 0.89 m/s, 196° | 120 W/m² | - |
| 1778002797 | 26.67° C | 88% | 1007.2 hPa | 0 mm | 0.89 m/s, 196° | 258 W/m² | - |
| 1778002497 | 26.67° C | 89% | 1007.2 hPa | 0 mm | 0.89 m/s, 195° | 200 W/m² | - |
| 1778002197 | 26.11° C | 88% | 1007.4 hPa | 0 mm | 0.89 m/s, 195° | 265 W/m² | - |
| 1778001897 | 26.11° C | 88% | 1007.4 hPa | 0 mm | 0.89 m/s, 190° | 213 W/m² | - |
| 1778001597 | 26.11° C | 88% | 1007.4 hPa | 0 mm | 0.89 m/s, 225° | 195 W/m² | - |
| 1778001297 | 26.11° C | 88% | 1007.5 hPa | 0 mm | 0.89 m/s, 225° | 121 W/m² | - |
| 1778000997 | 26.11° C | 88% | 1007.5 hPa | 0 mm | 0.45 m/s, 226° | 93 W/m² | - |
| 1778000697 | 26.11° C | 89% | 1007.5 hPa | 0 mm | 0.45 m/s, 226° | 188 W/m² | - |
| 1778000397 | 26.11° C | 88% | 1007.5 hPa | 0 mm | 0.45 m/s, 227° | 255 W/m² | - |
| 1778000097 | 26.11° C | 87% | 1007.6 hPa | 0 mm | 0.89 m/s, 227° | 114 W/m² | - |
| 1777999797 | 26.11° C | 87% | 1007.4 hPa | 0 mm | 0.89 m/s, 227° | 88 W/m² | - |
| 1777999497 | 26.11° C | 87% | 1007.4 hPa | 0 mm | 0.45 m/s, 227° | 195 W/m² | - |
| 1777999197 | 26.11° C | 87% | 1007.4 hPa | 0 mm | 0.89 m/s, 202° | 141 W/m² | - |
| 1777998897 | 26.11° C | 87% | 1007.4 hPa | 0 mm | 0.89 m/s, 202° | 70 W/m² | - |
| 1777998597 | 26.11° C | 86% | 1007.4 hPa | 0 mm | 0.89 m/s, 202° | 171 W/m² | - |
| 1777998297 | 26.11° C | 86% | 1007.4 hPa | 0 mm | 0.89 m/s, 202° | 83 W/m² | - |
| 1777997997 | 26.11° C | 87% | 1007.4 hPa | 0 mm | 0.45 m/s, 202° | 127 W/m² | - |
| 1777997697 | 26.11° C | 87% | 1007.3 hPa | 0 mm | 0.89 m/s, 202° | 237 W/m² | - |
| 1777997397 | 26.11° C | 87% | 1007.3 hPa | 0 mm | 0.45 m/s, 201° | 153 W/m² | - |
| 1777997097 | 26.11° C | 88% | 1007.2 hPa | 0 mm | 0.45 m/s, 201° | 274 W/m² | - |
* Rain latest hour (hover to see other rain measurements)
** Current wind speed in m/s (hover to see current wind gust speed)